Location: *
(49.8044°N, 4.0558°E)
Time: 13:37:21
(UTC+00:00)

STARLINK-1240 - Visible Passes

Search period start: 06 August 2020 00:00
Search period end: 16 August 2020 00:00
Orbit: 549 x 550 km, 53.0° (Epoch: 05 August)

Date Brightness Start Highest point End Pass type
(mag) Time Alt. Az. Time Alt. Az. Time Alt. Az.
06 Aug 3.8 00:09:47 10° WNW 00:13:56 72° NNE 00:15:16 41° E visible
06 Aug 5.4 01:49:31 10° WNW 01:50:43 18° W 01:50:43 18° W visible
06 Aug 3.6 20:44:34 10° WSW 20:48:43 86° NNW 20:52:54 10° ENE visible
06 Aug 4.3 22:24:30 10° W 22:28:34 53° N 22:32:27 11° ENE visible
07 Aug 3.7 00:04:16 10° WNW 00:08:01 70° NW 00:08:01 70° NW visible
07 Aug 3.8 20:39:00 10° WSW 20:43:09 76° NNW 20:47:18 10° ENE visible
07 Aug 4.3 22:18:57 10° WNW 22:23:02 54° N 22:25:58 18° ENE visible
07 Aug 4.4 23:58:40 10° WNW 00:01:33 44° WNW 00:01:33 44° WNW visible
08 Aug 4.0 20:33:22 10° W 20:37:30 67° NNW 20:41:39 10° ENE visible
08 Aug 4.2 22:13:19 10° WNW 22:17:24 55° N 22:19:43 24° ENE visible
08 Aug 4.9 23:52:59 10° WNW 23:55:18 32° WNW 23:55:18 32° WNW visible
09 Aug 4.1 20:27:40 10° W 20:31:48 61° NNW 20:35:55 10° ENE visible
09 Aug 4.1 22:07:36 10° WNW 22:11:43 59° N 22:13:32 30° ENE visible
09 Aug 5.3 23:47:15 10° WNW 23:49:08 25° WNW 23:49:08 25° WNW visible
10 Aug 4.2 20:21:55 10° W 20:26:01 57° N 20:30:07 10° ENE visible
10 Aug 3.9 22:01:48 10° WNW 22:05:56 63° NNE 22:07:22 37° E visible
10 Aug 5.5 23:41:27 10° WNW 23:42:58 21° W 23:42:58 21° W visible
11 Aug 4.3 20:16:06 10° W 20:20:10 55° N 20:24:16 10° ENE visible
11 Aug 3.8 21:55:55 10° WNW 22:00:04 70° NNE 22:01:12 45° E visible
11 Aug 5.8 23:35:36 10° WNW 23:36:47 18° W 23:36:47 18° W visible
12 Aug 4.3 20:10:11 10° W 20:14:15 54° N 20:18:20 10° ENE visible
12 Aug 3.6 21:49:56 10° WNW 21:54:06 79° NNE 21:55:00 53° E visible
12 Aug 5.9 23:29:42 10° WNW 23:30:35 15° W 23:30:35 15° W visible
13 Aug 4.3 20:04:11 10° WNW 20:08:16 54° N 20:12:20 10° E visible
13 Aug 3.5 21:43:53 10° WNW 21:48:04 89° NE 21:48:46 61° ESE visible
13 Aug 6.1 23:23:47 10° W 23:24:21 13° W 23:24:21 13° W visible
14 Aug 4.2 19:58:07 10° WNW 20:02:12 55° N 20:06:17 10° E visible
14 Aug 3.5 21:37:46 10° WNW 21:41:56 78° SSW 21:42:30 63° SE visible
14 Aug 6.3 23:17:53 10° W 23:18:05 11° W 23:18:05 11° W visible
15 Aug 4.1 19:51:57 10° WNW 19:56:04 57° N 20:00:09 10° E visible
15 Aug 3.6 21:31:35 10° WNW 21:35:42 66° SSW 21:36:11 59° SSE visible
